When you browse on this site, cookies collect data to enhance your experience and personalize the content and advertising you see.
Visit our Privacy Policy to learn more. By continuing to use the site, you agree to this use of cookies and data.
  • en Suisse
  • Liste des pays
  • À 7 jours
  • Température de l'eau
  • Carte satellitaire
  • Carte météo
  • Widgets météo
  • user-avatar
    Se connecter

    Météo par heure à Baykibashevo

    Ce jour, 16 Février, Samedi

    Heure Température Précipitation Vent Pression Humidité
    00:00 -11°C° 0.3 mm 6 m/s 737 mmHg 91%
    01:00 -10°C° 0.3 mm 6 m/s 736 mmHg 92%
    02:00 -10°C° 0.3 mm 6 m/s 735 mmHg 92%
    03:00 -10°C° 0.3 mm 5 m/s 735 mmHg 92%
    04:00 -10°C° 0 mm 4 m/s 734 mmHg 92%
    05:00 -10°C° 0.1 mm 4 m/s 733 mmHg 92%
    06:00 -11°C° 0.1 mm 5 m/s 733 mmHg 92%
    07:00 -11°C° 0.1 mm 5 m/s 733 mmHg 93%
    08:00 -11°C° 0.2 mm 5 m/s 733 mmHg 93%
    09:00 -10°C° 0.2 mm 5 m/s 732 mmHg 93%
    10:00 -10°C° 0.2 mm 5 m/s 732 mmHg 93%
    11:00 -8°C° 0.3 mm 5 m/s 732 mmHg 93%
    12:00 -7°C° 0.3 mm 5 m/s 732 mmHg 94%
    13:00 -7°C° 0.3 mm 5 m/s 732 mmHg 94%
    14:00 -6°C° 0.3 mm 5 m/s 732 mmHg 94%
    15:00 -4°C° 0.3 mm 4 m/s 732 mmHg 93%
    16:00 -3°C° 0.3 mm 4 m/s 732 mmHg 93%
    17:00 -4°C° 0.1 mm 3 m/s 733 mmHg 93%
    18:00 -4°C° 0.1 mm 2 m/s 733 mmHg 93%
    19:00 -5°C° 0.1 mm 2 m/s 733 mmHg 94%
    20:00 -3°C° 0.1 mm 1 m/s 734 mmHg 95%
    21:00 -3°C° 0.1 mm 1 m/s 734 mmHg 96%
    22:00 -3°C° 0.1 mm 1 m/s 734 mmHg 97%
    23:00 -3°C° 0.1 mm 1 m/s 734 mmHg 97%

    Demain, 17 Février, Dimanche

    Heure Température Précipitation Vent Pression Humidité
    00:00 -3°C° 0.1 mm 1 m/s 734 mmHg 97%
    01:00 -2°C° 0.1 mm 1 m/s 734 mmHg 98%
    02:00 -2°C° 0.1 mm 1 m/s 734 mmHg 98%
    03:00 -5°C° 0.1 mm 2 m/s 734 mmHg 98%
    04:00 -5°C° 0.1 mm 2 m/s 734 mmHg 98%
    05:00 -5°C° 0.1 mm 2 m/s 734 mmHg 98%
    06:00 -3°C° 0.1 mm 1 m/s 734 mmHg 98%
    07:00 -4°C° 0.1 mm 1 m/s 734 mmHg 98%
    08:00 -4°C° 0.1 mm 1 m/s 733 mmHg 97%
    09:00 -3°C° 0.1 mm 1 m/s 733 mmHg 96%
    10:00 -3°C° 0.1 mm 1 m/s 733 mmHg 96%
    11:00 -4°C° 0 mm 2 m/s 732 mmHg 94%
    12:00 -4°C° 0 mm 2 m/s 732 mmHg 92%
    13:00 -4°C° 0 mm 3 m/s 732 mmHg 91%
    14:00 -4°C° 0.1 mm 3 m/s 731 mmHg 90%
    15:00 -4°C° 0.1 mm 3 m/s 730 mmHg 90%
    16:00 -4°C° 0.1 mm 3 m/s 730 mmHg 90%
    17:00 -4°C° 0.1 mm 4 m/s 729 mmHg 91%
    18:00 -4°C° 0.1 mm 4 m/s 729 mmHg 91%
    19:00 -5°C° 0.1 mm 5 m/s 729 mmHg 91%
    20:00 -5°C° 0.1 mm 5 m/s 728 mmHg 91%
    21:00 -6°C° 0.1 mm 5 m/s 727 mmHg 91%
    22:00 -6°C° 0.1 mm 5 m/s 727 mmHg 91%
    23:00 -6°C° 0.2 mm 5 m/s 726 mmHg 91%

    Après-demain, 18 Février, Lundi

    Heure Température Précipitation Vent Pression Humidité
    00:00 -6°C° 0.2 mm 5 m/s 726 mmHg 92%
    01:00 -6°C° 0.2 mm 5 m/s 725 mmHg 92%
    02:00 -6°C° 0.2 mm 5 m/s 725 mmHg 92%
    03:00 -5°C° 0.2 mm 4 m/s 724 mmHg 92%
    04:00 -7°C° 0.2 mm 4 m/s 723 mmHg 91%
    05:00 -7°C° 0.2 mm 4 m/s 723 mmHg 92%
    06:00 -7°C° 0.2 mm 4 m/s 723 mmHg 93%
    07:00 -6°C° 0.2 mm 3 m/s 723 mmHg 93%
    08:00 -6°C° 0.2 mm 3 m/s 723 mmHg 93%
    09:00 -6°C° 0.2 mm 3 m/s 723 mmHg 92%
    10:00 -5°C° 0.2 mm 4 m/s 723 mmHg 91%
    11:00 -5°C° 0.2 mm 3 m/s 723 mmHg 90%
    12:00 -3°C° 0.2 mm 2 m/s 723 mmHg 89%
    13:00 -3°C° 0.2 mm 2 m/s 723 mmHg 87%
    14:00 -1°C° 0.2 mm 1 m/s 724 mmHg 89%
    15:00 -1°C° 0.2 mm 1 m/s 724 mmHg 90%
    16:00 -1°C° 0.2 mm 1 m/s 725 mmHg 91%
    17:00 -1°C° 0.1 mm 1 m/s 725 mmHg 92%
    18:00 -4°C° 0.1 mm 2 m/s 726 mmHg 93%
    19:00 -5°C° 0.1 mm 2 m/s 727 mmHg 94%
    20:00 -5°C° 0 mm 2 m/s 727 mmHg 94%
    21:00 -7°C° 0 mm 3 m/s 728 mmHg 94%
    22:00 -8°C° 0 mm 3 m/s 728 mmHg 94%
    23:00 -8°C° 0 mm 3 m/s 729 mmHg 94%

    19 Février, Mardi

    Heure Température Précipitation Vent Pression Humidité
    00:00 -8°C° 0 mm 3 m/s 730 mmHg 94%
    01:00 -8°C° 0 mm 3 m/s 730 mmHg 94%
    02:00 -8°C° 0.1 mm 4 m/s 731 mmHg 92%
    03:00 -8°C° 0.1 mm 5 m/s 732 mmHg 91%
    04:00 -8°C° 0.1 mm 7 m/s 733 mmHg 89%
    05:00 -10°C° 0 mm 6 m/s 734 mmHg 88%
    06:00 -12°C° 0 mm 6 m/s 735 mmHg 88%
    07:00 -16°C° 0 mm 6 m/s 736 mmHg 88%
    08:00 -16°C° 0 mm 6 m/s 737 mmHg 86%
    09:00 -15°C° 0 mm 5 m/s 738 mmHg 84%
    10:00 -17°C° 0 mm 5 m/s 739 mmHg 83%
    11:00 -15°C° 0 mm 5 m/s 739 mmHg 82%
    12:00 -14°C° 0 mm 5 m/s 740 mmHg 82%
    13:00 -13°C° 0 mm 5 m/s 740 mmHg 82%
    14:00 -12°C° 0 mm 4 m/s 741 mmHg 82%
    15:00 -12°C° 0 mm 3 m/s 741 mmHg 83%
    16:00 -10°C° 0 mm 2 m/s 742 mmHg 83%
    17:00 -13°C° 0 mm 2 m/s 742 mmHg 85%
    18:00 -14°C° 0 mm 2 m/s 742 mmHg 87%
    19:00 -15°C° 0 mm 2 m/s 743 mmHg 90%
    20:00 -14°C° 0 mm 2 m/s 743 mmHg 89%
    21:00 -15°C° 0 mm 3 m/s 743 mmHg 89%
    22:00 -14°C° 0 mm 3 m/s 743 mmHg 89%
    23:00 -14°C° 0.1 mm 3 m/s 742 mmHg 90%

    20 Février, Mercredi

    Heure Température Précipitation Vent Pression Humidité
    00:00 -15°C° 0.1 mm 4 m/s 742 mmHg 92%
    01:00 -14°C° 0.1 mm 4 m/s 742 mmHg 93%
    02:00 -14°C° 0.1 mm 4 m/s 742 mmHg 94%
    03:00 -14°C° 0.1 mm 4 m/s 742 mmHg 94%
    04:00 -14°C° 0.1 mm 4 m/s 742 mmHg 95%
    05:00 -14°C° 0 mm 4 m/s 742 mmHg 95%
    06:00 -14°C° 0 mm 4 m/s 742 mmHg 95%
    07:00 -12°C° 0 mm 4 m/s 743 mmHg 95%
    08:00 -12°C° 0 mm 4 m/s 743 mmHg 95%
    09:00 -11°C° 0 mm 4 m/s 743 mmHg 94%
    10:00 -12°C° 0 mm 5 m/s 743 mmHg 94%
    11:00 -11°C° 0 mm 5 m/s 743 mmHg 94%
    12:00 -10°C° 0 mm 5 m/s 743 mmHg 93%
    13:00 -10°C° 0 mm 5 m/s 743 mmHg 93%
    14:00 -10°C° 0 mm 6 m/s 742 mmHg 93%
    15:00 -10°C° 0 mm 6 m/s 742 mmHg 92%
    16:00 -10°C° 0 mm 6 m/s 742 mmHg 92%
    17:00 -11°C° 0 mm 7 m/s 741 mmHg 91%
    18:00 -11°C° 0 mm 7 m/s 741 mmHg 90%
    19:00 -11°C° 0 mm 7 m/s 741 mmHg 89%
    20:00 -12°C° 0 mm 7 m/s 741 mmHg 89%
    21:00 -12°C° 0 mm 7 m/s 741 mmHg 90%
    22:00 -13°C° 0 mm 7 m/s 740 mmHg 90%
    23:00 -13°C° 0 mm 7 m/s 740 mmHg 89%

    21 Février, Jeudi

    Heure Température Précipitation Vent Pression Humidité
    00:00 -14°C° 0 mm 7 m/s 740 mmHg 88%
    01:00 -14°C° 0 mm 7 m/s 740 mmHg 88%
    02:00 -14°C° 0 mm 7 m/s 740 mmHg 87%
    03:00 -15°C° 0 mm 7 m/s 740 mmHg 87%
    04:00 -15°C° 0 mm 7 m/s 740 mmHg 87%
    05:00 -15°C° 0.1 mm 7 m/s 740 mmHg 88%
    06:00 -15°C° 0.1 mm 7 m/s 740 mmHg 89%
    07:00 -15°C° 0.1 mm 7 m/s 740 mmHg 91%
    08:00 -15°C° 0.1 mm 7 m/s 740 mmHg 91%
    09:00 -15°C° 0.1 mm 7 m/s 740 mmHg 91%
    10:00 -15°C° 0.1 mm 7 m/s 740 mmHg 92%
    11:00 -14°C° 0.1 mm 7 m/s 739 mmHg 92%
    12:00 -13°C° 0.1 mm 7 m/s 739 mmHg 91%
    13:00 -12°C° 0.1 mm 7 m/s 739 mmHg 91%
    14:00 -12°C° 0.2 mm 7 m/s 739 mmHg 91%
    15:00 -11°C° 0.2 mm 7 m/s 739 mmHg 91%
    16:00 -11°C° 0.2 mm 7 m/s 739 mmHg 91%
    17:00 -11°C° 0.3 mm 7 m/s 739 mmHg 91%
    18:00 -11°C° 0.3 mm 7 m/s 739 mmHg 91%
    19:00 -11°C° 0.3 mm 7 m/s 739 mmHg 91%
    20:00 -11°C° 0.2 mm 7 m/s 739 mmHg 91%
    21:00 -9°C° 0.2 mm 7 m/s 738 mmHg 91%
    22:00 -9°C° 0.2 mm 6 m/s 738 mmHg 91%
    23:00 -9°C° 0.4 mm 6 m/s 738 mmHg 92%
    Voir plus